sat.trackr.live / text

‹ back to catalog

STARLINK-37686

NORAD 69470 · 2026-127AD

PAYLOAD ACTIVE UNKNOWN

§ Identity

Operator
Country
US
Launch date
2026-06-08
Launch site
AFETR
Launch vehicle
Mass (kg)
RCS (m²)

Purposes: comms

External: N2YO · Heavens-Above · Gunter

§ Orbital elements

Epoch: 2026-09-20T02:58:26.224032Z

Period
93.85 min
Inclination
53.1589°
Eccentricity
0.0001671
Mean motion
15.34403054 rev/d
Perigee alt
461.6 km
Apogee alt
463.8 km
Semi-major
6,840.8 km
B*
3.2625e-4
RAAN
167.5159°
Arg perigee
86.9468°
Mean anomaly
273.1726°
Rev number
1,613

§ Raw data

STARLINK-376861 69470U 26127AD  26263.12391463  .00010663  00000+0  32625-3 0  99982 69470  53.1589 167.5159 0001671  86.9468 273.1726 15.34403054 16137

JSON: /api/v1/satellites/69470 · /tle

For live sub-satellite position, see the globe view (requires WebGL).

§ Visibility from observer

Set your observer location to see the next 7 days of passes ≥ 10°. The values pass through the URL so the page stays shareable.

No JS? Fill the form by hand. The geolocation button needs JavaScript.